iso_date,Year,Hour,Min,DOY,POS_DOY,Lat,Lon,BP,Ts,Ta,has_bp,has_ts,has_ta,BuoyID,Buoy_Type,Buoy_Owner,Logistics,Hemisphere
2016-01-01T10:59:31Z,2016,11,0,1.458,1.485,-51.04722,-22.94306,1003.5,8.45,-999.0,yes,yes,no,132668,BD2A3,AOML,AGULHAS,South
2016-01-01T12:00:00Z,2016,12,0,1.5,1.485,-51.04722,-22.94306,1004.6,4.18,-999.0,yes,yes,no,132668,BD2A3,AOML,AGULHAS,South
2016-01-01T13:00:28Z,2016,13,0,1.542,1.485,-51.04722,-22.94306,1004.9,4.18,-999.0,yes,yes,no,132668,BD2A3,AOML,AGULHAS,South
2016-01-01T13:59:31Z,2016,14,0,1.583,1.641,-51.03194,-22.96083,1005.1,4.18,-999.0,yes,yes,no,132668,BD2A3,AOML,AGULHAS,South
2016-01-01T15:00:00Z,2016,15,0,1.625,1.641,-51.03194,-22.96083,1005.3,4.21,-999.0,yes,yes,no,132668,BD2A3,AOML,AGULHAS,South
2016-01-01T16:00:28Z,2016,16,0,1.667,1.641,-51.03194,-22.96083,1005.5,4.21,-999.0,yes,yes,no,132668,BD2A3,AOML,AGULHAS,South
2016-01-01T16:59:31Z,2016,17,0,1.708,1.708,-51.03083,-22.94917,1005.9,4.18,-999.0,yes,yes,no,132668,BD2A3,AOML,AGULHAS,South
2016-01-01T18:00:00Z,2016,18,0,1.75,1.747,-51.02083,-22.96694,1006.2,4.18,-999.0,yes,yes,no,132668,BD2A3,AOML,AGULHAS,South
2016-01-01T19:00:28Z,2016,19,0,1.792,1.783,-51.02111,-22.93472,1006.7,4.18,-999.0,yes,yes,no,132668,BD2A3,AOML,AGULHAS,South
2016-01-01T19:59:31Z,2016,20,0,1.833,1.819,-51.02028,-22.91083,1007.1,4.18,-999.0,yes,yes,no,132668,BD2A3,AOML,AGULHAS,South
2016-01-01T21:00:00Z,2016,21,0,1.875,1.853,-51.01083,-22.91556,1007.5,4.18,-999.0,yes,yes,no,132668,BD2A3,AOML,AGULHAS,South
2016-01-01T22:00:28Z,2016,22,0,1.917,1.901,-51.005,-22.89306,1008.0,4.14,-999.0,yes,yes,no,132668,BD2A3,AOML,AGULHAS,South
2016-01-01T22:59:31Z,2016,23,0,1.958,1.958,-50.98917,-22.90667,1008.5,4.18,-999.0,yes,yes,no,132668,BD2A3,AOML,AGULHAS,South
2016-01-02T00:00:00Z,2016,0,0,2.0,2.028,-50.97944,-22.89028,1008.5,4.18,-999.0,yes,yes,no,132668,BD2A3,AOML,AGULHAS,South
2016-01-02T01:00:28Z,2016,1,0,2.042,2.05,-50.97972,-22.89361,1008.9,4.18,-999.0,yes,yes,no,132668,BD2A3,AOML,AGULHAS,South
2016-01-02T01:59:31Z,2016,2,0,2.083,2.061,-50.98583,-22.90417,1009.1,4.18,-999.0,yes,yes,no,132668,BD2A3,AOML,AGULHAS,South
2016-01-02T03:00:00Z,2016,3,0,2.125,2.123,-50.96806,-22.89472,1009.2,4.14,-999.0,yes,yes,no,132668,BD2A3,AOML,AGULHAS,South
2016-01-02T04:00:28Z,2016,4,0,2.167,2.193,-50.95944,-22.88833,1009.2,4.18,-999.0,yes,yes,no,132668,BD2A3,AOML,AGULHAS,South
2016-01-02T04:59:31Z,2016,5,0,2.208,2.194,-50.95861,-22.89194,1009.3,4.14,-999.0,yes,yes,no,132668,BD2A3,AOML,AGULHAS,South
2016-01-02T06:00:00Z,2016,6,0,2.25,2.24,-50.95333,-22.895,1009.3,4.14,-999.0,yes,yes,no,132668,BD2A3,AOML,AGULHAS,South
2016-01-02T07:00:28Z,2016,7,0,2.292,2.309,-50.95083,-22.88278,1009.7,4.18,-999.0,yes,yes,no,132668,BD2A3,AOML,AGULHAS,South
2016-01-02T07:59:31Z,2016,8,0,2.333,2.332,-50.95528,-22.87472,1010.0,4.18,-999.0,yes,yes,no,132668,BD2A3,AOML,AGULHAS,South
2016-01-02T09:00:00Z,2016,9,0,2.375,2.369,-50.94667,-22.87778,1010.3,4.18,-999.0,yes,yes,no,132668,BD2A3,AOML,AGULHAS,South
2016-01-02T10:00:28Z,2016,10,0,2.417,2.401,-50.94778,-22.85556,1010.4,4.21,-999.0,yes,yes,no,132668,BD2A3,AOML,AGULHAS,South
2016-01-02T10:59:31Z,2016,11,0,2.458,2.468,-50.93861,-22.84417,1009.9,4.21,-999.0,yes,yes,no,132668,BD2A3,AOML,AGULHAS,South
2016-01-02T12:00:00Z,2016,12,0,2.5,2.468,-50.93861,-22.84417,1009.8,4.21,-999.0,yes,yes,no,132668,BD2A3,AOML,AGULHAS,South
2016-01-02T13:00:28Z,2016,13,0,2.542,2.468,-50.93861,-22.84417,1009.4,4.25,-999.0,yes,yes,no,132668,BD2A3,AOML,AGULHAS,South
2016-01-02T13:59:31Z,2016,14,0,2.583,2.631,-50.91639,-22.79917,1009.1,4.25,-999.0,yes,yes,no,132668,BD2A3,AOML,AGULHAS,South
2016-01-02T15:00:00Z,2016,15,0,2.625,2.631,-50.91639,-22.79917,1008.9,4.28,-999.0,yes,yes,no,132668,BD2A3,AOML,AGULHAS,South
2016-01-02T16:00:28Z,2016,16,0,2.667,2.699,-50.9,-22.79333,1008.9,4.25,-999.0,yes,yes,no,132668,BD2A3,AOML,AGULHAS,South
2016-01-02T16:59:31Z,2016,17,0,2.708,2.699,-50.9,-22.79333,1008.6,4.25,-999.0,yes,yes,no,132668,BD2A3,AOML,AGULHAS,South
2016-01-02T18:00:00Z,2016,18,0,2.75,2.745,-50.895,-22.77806,1008.2,4.25,-999.0,yes,yes,no,132668,BD2A3,AOML,AGULHAS,South
2016-01-02T19:00:28Z,2016,19,0,2.792,2.797,-50.88861,-22.765,1008.2,4.21,-999.0,yes,yes,no,132668,BD2A3,AOML,AGULHAS,South
2016-01-02T19:59:31Z,2016,20,0,2.833,2.845,-50.88528,-22.76444,1008.3,4.21,-999.0,yes,yes,no,132668,BD2A3,AOML,AGULHAS,South
2016-01-02T21:00:00Z,2016,21,0,2.875,2.884,-50.87889,-22.75056,1008.5,4.21,-999.0,yes,yes,no,132668,BD2A3,AOML,AGULHAS,South
2016-01-02T22:00:28Z,2016,22,0,2.917,2.917,-50.87944,-22.74417,1008.9,4.21,-999.0,yes,yes,no,132668,BD2A3,AOML,AGULHAS,South
2016-01-02T22:59:31Z,2016,23,0,2.958,2.944,-50.87611,-22.74667,1009.5,4.21,-999.0,yes,yes,no,132668,BD2A3,AOML,AGULHAS,South
2016-01-03T00:00:00Z,2016,0,0,3.0,2.977,-50.87639,-22.72389,1009.5,4.21,-999.0,yes,yes,no,132668,BD2A3,AOML,AGULHAS,South
2016-01-03T01:00:28Z,2016,1,0,3.042,3.042,-50.86528,-22.72361,1009.6,4.18,-999.0,yes,yes,no,132668,BD2A3,AOML,AGULHAS,South
2016-01-03T01:59:31Z,2016,2,0,3.083,3.115,-50.865,-22.69583,1009.6,4.18,-999.0,yes,yes,no,132668,BD2A3,AOML,AGULHAS,South
2016-01-03T03:00:00Z,2016,3,0,3.125,3.115,-50.865,-22.69583,1009.5,4.18,-999.0,yes,yes,no,132668,BD2A3,AOML,AGULHAS,South
2016-01-03T04:00:28Z,2016,4,0,3.167,3.183,-50.85611,-22.6775,1009.6,4.18,-999.0,yes,yes,no,132668,BD2A3,AOML,AGULHAS,South
2016-01-03T04:59:31Z,2016,5,0,3.208,3.222,-50.85139,-22.66722,1010.3,4.18,-999.0,yes,yes,no,132668,BD2A3,AOML,AGULHAS,South
2016-01-03T06:00:00Z,2016,6,0,3.25,3.256,-50.84722,-22.66222,1010.8,4.18,-999.0,yes,yes,no,132668,BD2A3,AOML,AGULHAS,South
2016-01-03T07:00:28Z,2016,7,0,3.292,3.291,-50.84056,-22.66306,1011.1,4.18,-999.0,yes,yes,no,132668,BD2A3,AOML,AGULHAS,South
2016-01-03T07:59:31Z,2016,8,0,3.333,3.328,-50.83833,-22.64444,1011.9,4.18,-999.0,yes,yes,no,132668,BD2A3,AOML,AGULHAS,South
2016-01-03T09:00:00Z,2016,9,0,3.375,3.371,-50.83639,-22.63583,1012.6,4.18,-999.0,yes,yes,no,132668,BD2A3,AOML,AGULHAS,South
2016-01-03T10:00:28Z,2016,10,0,3.417,3.427,-50.82444,-22.63722,1013.2,4.18,-999.0,yes,yes,no,132668,BD2A3,AOML,AGULHAS,South
2016-01-03T10:59:31Z,2016,11,0,3.458,3.455,-50.81944,-22.63861,1013.6,4.18,-999.0,yes,yes,no,132668,BD2A3,AOML,AGULHAS,South
2016-01-03T12:00:00Z,2016,12,0,3.5,3.455,-50.81944,-22.63861,1014.0,4.18,-999.0,yes,yes,no,132668,BD2A3,AOML,AGULHAS,South
2016-01-03T13:00:28Z,2016,13,0,3.542,3.625,-50.81583,-22.59389,1014.3,4.18,-999.0,yes,yes,no,132668,BD2A3,AOML,AGULHAS,South
2016-01-03T13:59:31Z,2016,14,0,3.583,3.625,-50.81583,-22.59389,1014.4,4.21,-999.0,yes,yes,no,132668,BD2A3,AOML,AGULHAS,South
2016-01-03T15:00:00Z,2016,15,0,3.625,3.625,-50.81583,-22.59389,1014.8,4.21,-999.0,yes,yes,no,132668,BD2A3,AOML,AGULHAS,South
2016-01-03T16:00:28Z,2016,16,0,3.667,3.708,-50.81333,-22.56639,1015.3,4.21,-999.0,yes,yes,no,132668,BD2A3,AOML,AGULHAS,South
2016-01-03T16:59:31Z,2016,17,0,3.708,3.708,-50.81333,-22.56639,1015.8,4.21,-999.0,yes,yes,no,132668,BD2A3,AOML,AGULHAS,South
2016-01-03T18:00:00Z,2016,18,0,3.75,3.763,-50.80694,-22.55111,1016.3,4.21,-999.0,yes,yes,no,132668,BD2A3,AOML,AGULHAS,South
2016-01-03T19:00:28Z,2016,19,0,3.792,3.797,-50.80583,-22.54389,1016.8,4.21,-999.0,yes,yes,no,132668,BD2A3,AOML,AGULHAS,South
2016-01-03T19:59:31Z,2016,20,0,3.833,3.835,-50.80333,-22.54694,1017.4,4.21,-999.0,yes,yes,no,132668,BD2A3,AOML,AGULHAS,South
2016-01-03T21:00:00Z,2016,21,0,3.875,3.867,-50.79972,-22.53028,1017.8,4.21,-999.0,yes,yes,no,132668,BD2A3,AOML,AGULHAS,South
2016-01-03T22:00:28Z,2016,22,0,3.917,3.909,-50.79889,-22.51778,1018.4,4.21,-999.0,yes,yes,no,132668,BD2A3,AOML,AGULHAS,South
2016-01-03T22:59:31Z,2016,23,0,3.958,3.965,-50.78972,-22.50528,1019.0,4.21,-999.0,yes,yes,no,132668,BD2A3,AOML,AGULHAS,South
2016-01-04T00:00:00Z,2016,0,0,4.0,3.999,-50.78556,-22.50056,1019.1,4.18,-999.0,yes,yes,no,132668,BD2A3,AOML,AGULHAS,South
2016-01-04T01:00:28Z,2016,1,0,4.042,4.034,-50.79167,-22.49278,1019.4,4.18,-999.0,yes,yes,no,132668,BD2A3,AOML,AGULHAS,South
2016-01-04T01:59:31Z,2016,2,0,4.083,4.034,-50.79167,-22.49278,1019.5,4.18,-999.0,yes,yes,no,132668,BD2A3,AOML,AGULHAS,South
2016-01-04T03:00:00Z,2016,3,0,4.125,4.176,-50.77639,-22.46306,1019.8,4.18,-999.0,yes,yes,no,132668,BD2A3,AOML,AGULHAS,South
2016-01-04T04:00:28Z,2016,4,0,4.167,4.176,-50.77639,-22.46306,1019.8,4.18,-999.0,yes,yes,no,132668,BD2A3,AOML,AGULHAS,South
2016-01-04T04:59:31Z,2016,5,0,4.208,4.206,-50.77972,-22.45861,1019.9,4.18,-999.0,yes,yes,no,132668,BD2A3,AOML,AGULHAS,South
2016-01-04T06:00:00Z,2016,6,0,4.25,4.244,-50.78028,-22.43056,1020.0,4.18,-999.0,yes,yes,no,132668,BD2A3,AOML,AGULHAS,South
2016-01-04T07:00:28Z,2016,7,0,4.292,4.279,-50.77639,-22.41889,1020.3,4.18,-999.0,yes,yes,no,132668,BD2A3,AOML,AGULHAS,South
2016-01-04T07:59:31Z,2016,8,0,4.333,4.343,-50.77222,-22.40333,1020.4,4.18,-999.0,yes,yes,no,132668,BD2A3,AOML,AGULHAS,South
2016-01-04T09:00:00Z,2016,9,0,4.375,4.372,-50.77444,-22.39083,1020.6,4.18,-999.0,yes,yes,no,132668,BD2A3,AOML,AGULHAS,South
2016-01-04T10:00:28Z,2016,10,0,4.417,4.417,-50.77083,-22.38667,1020.8,4.18,-999.0,yes,yes,no,132668,BD2A3,AOML,AGULHAS,South
2016-01-04T10:59:31Z,2016,11,0,4.458,4.443,-50.76778,-22.38444,1020.9,4.21,-999.0,yes,yes,no,132668,BD2A3,AOML,AGULHAS,South
2016-01-04T12:00:00Z,2016,12,0,4.5,4.513,-50.76722,-22.36639,1021.0,4.21,-999.0,yes,yes,no,132668,BD2A3,AOML,AGULHAS,South
2016-01-04T13:00:28Z,2016,13,0,4.542,4.513,-50.76722,-22.36639,1020.8,4.28,-999.0,yes,yes,no,132668,BD2A3,AOML,AGULHAS,South
2016-01-04T13:59:31Z,2016,14,0,4.583,4.616,-50.75778,-22.31833,1021.0,4.28,-999.0,yes,yes,no,132668,BD2A3,AOML,AGULHAS,South
2016-01-04T15:00:00Z,2016,15,0,4.625,4.616,-50.75778,-22.31833,1020.8,4.28,-999.0,yes,yes,no,132668,BD2A3,AOML,AGULHAS,South
2016-01-04T16:00:28Z,2016,16,0,4.667,4.684,-50.75528,-22.28028,1020.6,4.28,-999.0,yes,yes,no,132668,BD2A3,AOML,AGULHAS,South
2016-01-04T16:59:31Z,2016,17,0,4.708,4.684,-50.75528,-22.28028,1020.9,4.31,-999.0,yes,yes,no,132668,BD2A3,AOML,AGULHAS,South
2016-01-04T18:00:00Z,2016,18,0,4.75,4.755,-50.75222,-22.26778,1020.3,4.31,-999.0,yes,yes,no,132668,BD2A3,AOML,AGULHAS,South
2016-01-04T21:00:00Z,2016,21,0,4.875,4.85,-50.74917,-22.23472,1018.9,4.28,-999.0,yes,yes,no,132668,BD2A3,AOML,AGULHAS,South
2016-01-04T22:00:28Z,2016,22,0,4.917,4.919,-50.74417,-22.21278,1018.4,4.28,-999.0,yes,yes,no,132668,BD2A3,AOML,AGULHAS,South
2016-01-04T22:59:31Z,2016,23,0,4.958,4.947,-50.75361,-22.19111,1017.9,4.28,-999.0,yes,yes,no,132668,BD2A3,AOML,AGULHAS,South
2016-01-05T00:00:00Z,2016,0,0,5.0,4.986,-50.75278,-22.17278,1017.0,4.28,-999.0,yes,yes,no,132668,BD2A3,AOML,AGULHAS,South
2016-01-05T01:00:28Z,2016,1,0,5.042,5.026,-50.755,-22.16528,1016.1,4.28,-999.0,yes,yes,no,132668,BD2A3,AOML,AGULHAS,South
2016-01-05T01:59:31Z,2016,2,0,5.083,5.099,-50.75278,-22.1325,1015.0,4.25,-999.0,yes,yes,no,132668,BD2A3,AOML,AGULHAS,South
2016-01-05T03:00:00Z,2016,3,0,5.125,5.099,-50.75278,-22.1325,1013.4,4.25,-999.0,yes,yes,no,132668,BD2A3,AOML,AGULHAS,South
2016-01-05T04:00:28Z,2016,4,0,5.167,5.167,-50.75583,-22.09944,1012.3,4.25,-999.0,yes,yes,no,132668,BD2A3,AOML,AGULHAS,South
2016-01-05T04:59:31Z,2016,5,0,5.208,5.188,-50.76056,-22.08944,1011.5,4.25,-999.0,yes,yes,no,132668,BD2A3,AOML,AGULHAS,South
2016-01-05T06:00:00Z,2016,6,0,5.25,5.237,-50.75972,-22.07778,1010.9,4.25,-999.0,yes,yes,no,132668,BD2A3,AOML,AGULHAS,South
2016-01-05T07:00:28Z,2016,7,0,5.292,5.312,-50.75833,-22.0425,1010.3,4.25,-999.0,yes,yes,no,132668,BD2A3,AOML,AGULHAS,South
2016-01-05T07:59:31Z,2016,8,0,5.333,5.326,-50.76333,-22.02889,1009.6,4.25,-999.0,yes,yes,no,132668,BD2A3,AOML,AGULHAS,South
2016-01-05T09:00:00Z,2016,9,0,5.375,5.358,-50.76056,-22.00389,1008.9,4.21,-999.0,yes,yes,no,132668,BD2A3,AOML,AGULHAS,South
2016-01-05T10:00:28Z,2016,10,0,5.417,5.395,-50.76306,-21.99944,1008.1,4.21,-999.0,yes,yes,no,132668,BD2A3,AOML,AGULHAS,South
2016-01-05T10:59:31Z,2016,11,0,5.458,5.465,-50.75917,-21.975,1007.5,4.21,-999.0,yes,yes,no,132668,BD2A3,AOML,AGULHAS,South
2016-01-05T12:00:00Z,2016,12,0,5.5,5.497,-50.75806,-21.97917,1006.7,4.21,-999.0,yes,yes,no,132668,BD2A3,AOML,AGULHAS,South
2016-01-05T13:00:28Z,2016,13,0,5.542,5.497,-50.75806,-21.97917,1005.4,4.21,-999.0,yes,yes,no,132668,BD2A3,AOML,AGULHAS,South
2016-01-05T13:59:31Z,2016,14,0,5.583,5.608,-50.76583,-21.925,1003.7,4.21,-999.0,yes,yes,no,132668,BD2A3,AOML,AGULHAS,South
2016-01-05T15:00:00Z,2016,15,0,5.625,5.608,-50.76583,-21.925,1002.6,4.21,-999.0,yes,yes,no,132668,BD2A3,AOML,AGULHAS,South
2016-01-05T16:00:28Z,2016,16,0,5.667,5.676,-50.77806,-21.90389,1001.7,4.21,-999.0,yes,yes,no,132668,BD2A3,AOML,AGULHAS,South
2016-01-05T16:59:31Z,2016,17,0,5.708,5.728,-50.77583,-21.86361,1001.0,4.21,-999.0,yes,yes,no,132668,BD2A3,AOML,AGULHAS,South
2016-01-05T18:00:00Z,2016,18,0,5.75,5.751,-50.78528,-21.86028,1000.8,4.21,-999.0,yes,yes,no,132668,BD2A3,AOML,AGULHAS,South
2016-01-05T19:00:28Z,2016,19,0,5.792,5.801,-50.78,-21.84583,1001.3,4.21,-999.0,yes,yes,no,132668,BD2A3,AOML,AGULHAS,South
2016-01-05T19:59:31Z,2016,20,0,5.833,5.833,-50.78333,-21.83111,1002.3,4.21,-999.0,yes,yes,no,132668,BD2A3,AOML,AGULHAS,South
2016-01-05T21:00:00Z,2016,21,0,5.875,5.893,-50.78194,-21.81972,1003.7,4.21,-999.0,yes,yes,no,132668,BD2A3,AOML,AGULHAS,South
2016-01-05T22:00:28Z,2016,22,0,5.917,5.901,-50.78167,-21.81472,1004.9,4.21,-999.0,yes,yes,no,132668,BD2A3,AOML,AGULHAS,South
2016-01-05T22:59:31Z,2016,23,0,5.958,5.972,-50.7775,-21.79972,1006.0,4.21,-999.0,yes,yes,no,132668,BD2A3,AOML,AGULHAS,South
2016-01-06T00:00:00Z,2016,0,0,6.0,6.005,-50.78111,-21.80306,1007.0,4.21,-999.0,yes,yes,no,132668,BD2A3,AOML,AGULHAS,South
2016-01-06T01:00:28Z,2016,1,0,6.042,6.04,-50.7775,-21.79028,1007.8,4.18,-999.0,yes,yes,no,132668,BD2A3,AOML,AGULHAS,South
2016-01-06T01:59:31Z,2016,2,0,6.083,6.092,-50.78083,-21.79278,1008.8,4.18,-999.0,yes,yes,no,132668,BD2A3,AOML,AGULHAS,South
2016-01-06T03:00:00Z,2016,3,0,6.125,6.092,-50.78083,-21.79278,1009.1,4.18,-999.0,yes,yes,no,132668,BD2A3,AOML,AGULHAS,South
2016-01-06T04:00:28Z,2016,4,0,6.167,6.162,-50.78361,-21.78028,1009.3,4.18,-999.0,yes,yes,no,132668,BD2A3,AOML,AGULHAS,South
2016-01-06T04:59:31Z,2016,5,0,6.208,6.228,-50.79639,-21.76694,1009.6,4.18,-999.0,yes,yes,no,132668,BD2A3,AOML,AGULHAS,South
2016-01-06T06:00:00Z,2016,6,0,6.25,6.24,-50.79611,-21.77306,1009.8,4.18,-999.0,yes,yes,no,132668,BD2A3,AOML,AGULHAS,South
2016-01-06T07:00:28Z,2016,7,0,6.292,6.304,-50.81111,-21.73278,1009.9,4.18,-999.0,yes,yes,no,132668,BD2A3,AOML,AGULHAS,South
2016-01-06T07:59:31Z,2016,8,0,6.333,6.309,-50.80722,-21.74083,1010.4,4.18,-999.0,yes,yes,no,132668,BD2A3,AOML,AGULHAS,South
2016-01-06T09:00:00Z,2016,9,0,6.375,6.376,-50.81306,-21.73,1010.2,4.21,-999.0,yes,yes,no,132668,BD2A3,AOML,AGULHAS,South
2016-01-06T10:00:28Z,2016,10,0,6.417,6.412,-50.81417,-21.70278,1009.6,4.21,-999.0,yes,yes,no,132668,BD2A3,AOML,AGULHAS,South
2016-01-06T10:59:31Z,2016,11,0,6.458,6.451,-50.81694,-21.69778,1008.8,4.25,-999.0,yes,yes,no,132668,BD2A3,AOML,AGULHAS,South
2016-01-06T12:00:00Z,2016,12,0,6.5,6.483,-50.81722,-21.6975,1008.2,4.25,-999.0,yes,yes,no,132668,BD2A3,AOML,AGULHAS,South
2016-01-06T13:00:28Z,2016,13,0,6.542,6.483,-50.81722,-21.6975,1007.5,4.28,-999.0,yes,yes,no,132668,BD2A3,AOML,AGULHAS,South
2016-01-06T13:59:31Z,2016,14,0,6.583,6.67,-50.82222,-21.64528,1006.4,4.28,-999.0,yes,yes,no,132668,BD2A3,AOML,AGULHAS,South
2016-01-06T15:00:00Z,2016,15,0,6.625,6.67,-50.82222,-21.64528,1005.0,4.28,-999.0,yes,yes,no,132668,BD2A3,AOML,AGULHAS,South
2016-01-06T16:00:28Z,2016,16,0,6.667,6.67,-50.82222,-21.64528,1003.4,4.28,-999.0,yes,yes,no,132668,BD2A3,AOML,AGULHAS,South
2016-01-06T16:59:31Z,2016,17,0,6.708,6.71,-50.82972,-21.63333,1001.6,4.28,-999.0,yes,yes,no,132668,BD2A3,AOML,AGULHAS,South
2016-01-06T18:00:00Z,2016,18,0,6.75,6.745,-50.82861,-21.63722,1000.2,4.28,-999.0,yes,yes,no,132668,BD2A3,AOML,AGULHAS,South
2016-01-06T19:00:28Z,2016,19,0,6.792,6.81,-50.83528,-21.63417,998.5,4.28,-999.0,yes,yes,no,132668,BD2A3,AOML,AGULHAS,South
2016-01-06T19:59:31Z,2016,20,0,6.833,6.849,-50.845,-21.6425,996.8,4.28,-999.0,yes,yes,no,132668,BD2A3,AOML,AGULHAS,South
2016-01-06T21:00:00Z,2016,21,0,6.875,6.885,-50.85417,-21.625,994.9,4.28,-999.0,yes,yes,no,132668,BD2A3,AOML,AGULHAS,South
2016-01-06T22:00:28Z,2016,22,0,6.917,6.922,-50.86611,-21.60583,993.6,4.31,-999.0,yes,yes,no,132668,BD2A3,AOML,AGULHAS,South
2016-01-06T22:59:31Z,2016,23,0,6.958,6.956,-50.86889,-21.60167,992.0,4.28,-999.0,yes,yes,no,132668,BD2A3,AOML,AGULHAS,South
2016-01-07T00:00:00Z,2016,0,0,7.0,6.988,-50.87778,-21.6025,991.0,4.28,-999.0,yes,yes,no,132668,BD2A3,AOML,AGULHAS,South
2016-01-07T01:00:28Z,2016,1,0,7.042,7.026,-50.88056,-21.57722,989.8,4.28,-999.0,yes,yes,no,132668,BD2A3,AOML,AGULHAS,South
2016-01-07T01:59:31Z,2016,2,0,7.083,7.085,-50.88889,-21.56528,989.8,4.28,-999.0,yes,yes,no,132668,BD2A3,AOML,AGULHAS,South
2016-01-07T03:00:00Z,2016,3,0,7.125,7.154,-50.88139,-21.53611,990.2,4.28,-999.0,yes,yes,no,132668,BD2A3,AOML,AGULHAS,South
2016-01-07T04:00:28Z,2016,4,0,7.167,7.155,-50.88222,-21.53583,991.5,4.28,-999.0,yes,yes,no,132668,BD2A3,AOML,AGULHAS,South
2016-01-07T04:59:31Z,2016,5,0,7.208,7.221,-50.87417,-21.52444,992.5,4.28,-999.0,yes,yes,no,132668,BD2A3,AOML,AGULHAS,South
2016-01-07T06:00:00Z,2016,6,0,7.25,7.224,-50.87639,-21.52167,993.8,4.28,-999.0,yes,yes,no,132668,BD2A3,AOML,AGULHAS,South
2016-01-07T07:00:28Z,2016,7,0,7.292,7.292,-50.875,-21.51528,995.1,4.28,-999.0,yes,yes,no,132668,BD2A3,AOML,AGULHAS,South
2016-01-07T07:59:31Z,2016,8,0,7.333,7.33,-50.88306,-21.49833,995.8,4.28,-999.0,yes,yes,no,132668,BD2A3,AOML,AGULHAS,South
2016-01-07T09:00:00Z,2016,9,0,7.375,7.364,-50.8775,-21.51472,996.6,4.25,-999.0,yes,yes,no,132668,BD2A3,AOML,AGULHAS,South
2016-01-07T10:00:28Z,2016,10,0,7.417,7.422,-50.88361,-21.50111,997.8,4.25,-999.0,yes,yes,no,132668,BD2A3,AOML,AGULHAS,South
2016-01-07T10:59:31Z,2016,11,0,7.458,7.466,-50.88583,-21.50361,998.4,4.25,-999.0,yes,yes,no,132668,BD2A3,AOML,AGULHAS,South
2016-01-07T12:00:00Z,2016,12,0,7.5,7.466,-50.88583,-21.50361,999.4,4.25,-999.0,yes,yes,no,132668,BD2A3,AOML,AGULHAS,South
2016-01-07T13:00:28Z,2016,13,0,7.542,7.466,-50.88583,-21.50361,1000.2,4.25,-999.0,yes,yes,no,132668,BD2A3,AOML,AGULHAS,South
2016-01-07T13:59:31Z,2016,14,0,7.583,7.664,-50.89778,-21.45139,1000.4,4.28,-999.0,yes,yes,no,132668,BD2A3,AOML,AGULHAS,South
2016-01-07T15:00:00Z,2016,15,0,7.625,7.664,-50.89778,-21.45139,1000.8,4.28,-999.0,yes,yes,no,132668,BD2A3,AOML,AGULHAS,South
2016-01-07T16:00:28Z,2016,16,0,7.667,7.664,-50.89778,-21.45139,1000.6,4.28,-999.0,yes,yes,no,132668,BD2A3,AOML,AGULHAS,South
2016-01-07T16:59:31Z,2016,17,0,7.708,7.729,-50.90111,-21.44583,1000.5,4.31,-999.0,yes,yes,no,132668,BD2A3,AOML,AGULHAS,South
2016-01-07T18:00:00Z,2016,18,0,7.75,7.733,-50.90278,-21.44722,1000.0,4.28,-999.0,yes,yes,no,132668,BD2A3,AOML,AGULHAS,South
2016-01-07T19:00:28Z,2016,19,0,7.792,7.799,-50.90972,-21.43333,1000.2,4.31,-999.0,yes,yes,no,132668,BD2A3,AOML,AGULHAS,South
2016-01-07T19:59:31Z,2016,20,0,7.833,7.803,-50.90722,-21.43778,999.5,4.28,-999.0,yes,yes,no,132668,BD2A3,AOML,AGULHAS,South
2016-01-07T21:00:00Z,2016,21,0,7.875,7.874,-50.91694,-21.42778,998.2,4.28,-999.0,yes,yes,no,132668,BD2A3,AOML,AGULHAS,South
2016-01-07T22:00:28Z,2016,22,0,7.917,7.944,-50.92889,-21.4325,997.2,4.31,-999.0,yes,yes,no,132668,BD2A3,AOML,AGULHAS,South
2016-01-07T22:59:31Z,2016,23,0,7.958,7.946,-50.93083,-21.42278,996.9,4.28,-999.0,yes,yes,no,132668,BD2A3,AOML,AGULHAS,South
2016-01-08T00:00:00Z,2016,0,0,8.0,8.01,-50.93528,-21.40111,996.2,4.31,-999.0,yes,yes,no,132668,BD2A3,AOML,AGULHAS,South
2016-01-08T01:00:28Z,2016,1,0,8.042,8.047,-50.94722,-21.40028,996.0,4.31,-999.0,yes,yes,no,132668,BD2A3,AOML,AGULHAS,South
2016-01-08T01:59:31Z,2016,2,0,8.083,8.071,-50.93833,-21.3875,996.3,4.28,-999.0,yes,yes,no,132668,BD2A3,AOML,AGULHAS,South
2016-01-08T03:00:00Z,2016,3,0,8.125,8.146,-50.94194,-21.36611,996.8,4.28,-999.0,yes,yes,no,132668,BD2A3,AOML,AGULHAS,South
2016-01-08T04:00:28Z,2016,4,0,8.167,8.146,-50.94194,-21.36611,997.1,4.28,-999.0,yes,yes,no,132668,BD2A3,AOML,AGULHAS,South
2016-01-08T04:59:31Z,2016,5,0,8.208,8.205,-50.93722,-21.35889,997.8,4.28,-999.0,yes,yes,no,132668,BD2A3,AOML,AGULHAS,South
2016-01-08T06:00:00Z,2016,6,0,8.25,8.275,-50.94278,-21.35472,998.5,4.28,-999.0,yes,yes,no,132668,BD2A3,AOML,AGULHAS,South
2016-01-08T07:00:28Z,2016,7,0,8.292,8.287,-50.94639,-21.34917,999.2,4.28,-999.0,yes,yes,no,132668,BD2A3,AOML,AGULHAS,South
2016-01-08T07:59:31Z,2016,8,0,8.333,8.287,-50.94639,-21.34917,999.8,4.28,-999.0,yes,yes,no,132668,BD2A3,AOML,AGULHAS,South
2016-01-08T09:00:00Z,2016,9,0,8.375,8.383,-50.95278,-21.33,1000.2,4.28,-999.0,yes,yes,no,132668,BD2A3,AOML,AGULHAS,South
2016-01-08T10:00:28Z,2016,10,0,8.417,8.422,-50.96,-21.31167,1000.4,4.31,-999.0,yes,yes,no,132668,BD2A3,AOML,AGULHAS,South
2016-01-08T10:59:31Z,2016,11,0,8.458,8.489,-50.95639,-21.30778,1000.7,4.35,-999.0,yes,yes,no,132668,BD2A3,AOML,AGULHAS,South
2016-01-08T12:00:00Z,2016,12,0,8.5,8.489,-50.95639,-21.30778,1001.1,4.38,-999.0,yes,yes,no,132668,BD2A3,AOML,AGULHAS,South
2016-01-08T13:00:28Z,2016,13,0,8.542,8.489,-50.95639,-21.30778,1001.5,4.42,-999.0,yes,yes,no,132668,BD2A3,AOML,AGULHAS,South
2016-01-08T13:59:31Z,2016,14,0,8.583,8.655,-50.97389,-21.29083,1002.0,4.42,-999.0,yes,yes,no,132668,BD2A3,AOML,AGULHAS,South
2016-01-08T15:00:00Z,2016,15,0,8.625,8.655,-50.97389,-21.29083,1002.0,4.45,-999.0,yes,yes,no,132668,BD2A3,AOML,AGULHAS,South
2016-01-08T16:00:28Z,2016,16,0,8.667,8.655,-50.97389,-21.29083,1002.0,4.48,-999.0,yes,yes,no,132668,BD2A3,AOML,AGULHAS,South
2016-01-08T16:59:31Z,2016,17,0,8.708,8.723,-50.98056,-21.275,1002.1,4.48,-999.0,yes,yes,no,132668,BD2A3,AOML,AGULHAS,South
2016-01-08T18:00:00Z,2016,18,0,8.75,8.733,-50.98222,-21.27694,1001.8,4.48,-999.0,yes,yes,no,132668,BD2A3,AOML,AGULHAS,South
2016-01-08T19:00:28Z,2016,19,0,8.792,8.797,-50.98889,-21.26694,1002.0,4.48,-999.0,yes,yes,no,132668,BD2A3,AOML,AGULHAS,South
2016-01-08T19:59:31Z,2016,20,0,8.833,8.85,-50.98694,-21.2475,1001.6,4.52,-999.0,yes,yes,no,132668,BD2A3,AOML,AGULHAS,South
2016-01-08T21:00:00Z,2016,21,0,8.875,8.87,-50.98194,-21.24028,1001.3,4.48,-999.0,yes,yes,no,132668,BD2A3,AOML,AGULHAS,South
2016-01-08T22:00:28Z,2016,22,0,8.917,8.919,-50.99944,-21.235,1000.9,4.48,-999.0,yes,yes,no,132668,BD2A3,AOML,AGULHAS,South
2016-01-08T22:59:31Z,2016,23,0,8.958,8.963,-50.99528,-21.22222,1000.1,4.48,-999.0,yes,yes,no,132668,BD2A3,AOML,AGULHAS,South
2016-01-09T00:00:00Z,2016,0,0,9.0,8.997,-50.98861,-21.21306,999.0,4.48,-999.0,yes,yes,no,132668,BD2A3,AOML,AGULHAS,South
2016-01-09T01:00:28Z,2016,1,0,9.042,9.029,-50.99667,-21.21611,999.4,4.45,-999.0,yes,yes,no,132668,BD2A3,AOML,AGULHAS,South
2016-01-09T01:59:31Z,2016,2,0,9.083,9.064,-50.99694,-21.20833,998.2,4.45,-999.0,yes,yes,no,132668,BD2A3,AOML,AGULHAS,South
2016-01-09T03:00:00Z,2016,3,0,9.125,9.137,-51.00194,-21.1925,996.4,4.45,-999.0,yes,yes,no,132668,BD2A3,AOML,AGULHAS,South
2016-01-09T04:00:28Z,2016,4,0,9.167,9.139,-51.00583,-21.18944,995.1,4.45,-999.0,yes,yes,no,132668,BD2A3,AOML,AGULHAS,South
2016-01-09T04:59:31Z,2016,5,0,9.208,9.208,-51.01333,-21.17833,994.3,4.45,-999.0,yes,yes,no,132668,BD2A3,AOML,AGULHAS,South
2016-01-09T06:00:00Z,2016,6,0,9.25,9.258,-51.01722,-21.17556,993.6,4.45,-999.0,yes,yes,no,132668,BD2A3,AOML,AGULHAS,South
2016-01-09T07:00:28Z,2016,7,0,9.292,9.281,-51.02444,-21.17306,993.3,4.45,-999.0,yes,yes,no,132668,BD2A3,AOML,AGULHAS,South
2016-01-09T07:59:31Z,2016,8,0,9.333,9.326,-51.0275,-21.15306,992.8,4.48,-999.0,yes,yes,no,132668,BD2A3,AOML,AGULHAS,South
2016-01-09T09:00:00Z,2016,9,0,9.375,9.378,-51.03389,-21.13306,992.3,4.48,-999.0,yes,yes,no,132668,BD2A3,AOML,AGULHAS,South
2016-01-09T10:00:28Z,2016,10,0,9.417,9.404,-51.03306,-21.11639,992.1,4.48,-999.0,yes,yes,no,132668,BD2A3,AOML,AGULHAS,South
2016-01-09T10:59:31Z,2016,11,0,9.458,9.477,-51.025,-21.08972,991.7,4.52,-999.0,yes,yes,no,132668,BD2A3,AOML,AGULHAS,South
2016-01-09T13:00:28Z,2016,13,0,9.542,9.477,-51.025,-21.08972,991.5,4.52,-999.0,yes,yes,no,132668,BD2A3,AOML,AGULHAS,South
2016-01-09T13:59:31Z,2016,14,0,9.583,9.646,-51.02056,-21.05306,990.8,4.55,-999.0,yes,yes,no,132668,BD2A3,AOML,AGULHAS,South